Location: Skymont Scout Reservation
(35.4344°N, 85.8742°W)
Time: 08:41:36
(UTC-05:00)

ISS - All Passes

Search period start: 01 September 2014 00:00
Search period end: 11 September 2014 00:00
Orbit: 414 x 419 km, 51.6° (Epoch: 01 September)

Date Brightness Start Highest point End Pass type
(mag) Time Alt. Az. Time Alt. Az. Time Alt. Az.
01 Sep - 09:33:46 10° SW 09:37:05 83° SE 09:40:24 10° NE daylight
01 Sep - 11:12:26 10° WNW 11:14:11 14° NNW 11:15:57 10° N daylight
01 Sep - 16:05:21 10° NNW 16:08:14 26° NE 16:11:06 10° E daylight
01 Sep - 17:42:04 10° WNW 17:44:55 26° SW 17:47:46 10° S daylight
02 Sep - 08:45:28 10° SSW 08:48:36 41° SE 08:51:45 10° ENE daylight
02 Sep - 10:22:55 10° W 10:25:27 20° NNW 10:27:59 10° NNE daylight
02 Sep - 15:17:13 10° NNW 15:19:32 17° NNE 15:21:50 10° ENE daylight
02 Sep - 16:53:13 10° WNW 16:56:28 52° SW 16:59:43 10° SSE daylight
03 Sep - 07:57:34 10° S 08:00:10 21° SE 08:02:46 10° ENE daylight
03 Sep - 09:33:45 10° W 09:36:45 31° NW 09:39:46 10° NNE daylight
03 Sep - 14:29:21 10° N 14:30:44 12° NNE 14:32:07 10° NE daylight
03 Sep - 16:04:36 10° NW 16:07:56 78° NE 16:11:15 10° SE daylight
04 Sep - 07:10:38 10° SSE 07:11:45 11° SE 07:12:53 10° ESE daylight
04 Sep - 08:44:50 10° WSW 08:48:06 56° NW 08:51:23 10° NE daylight
04 Sep - 10:25:02 10° NNW 10:25:26 10° NNW 10:25:50 10° NNW daylight
04 Sep - 15:16:09 10° NW 15:19:19 40° NE 15:22:29 10° ESE daylight
04 Sep - 16:53:41 10° W 16:55:47 16° SW 16:57:52 10° SSW daylight
05 Sep - 07:56:11 10° SW 07:59:30 75° SE 08:02:49 10° NE daylight
05 Sep - 09:34:39 10° WNW 09:36:34 14° NNW 09:38:29 10° N daylight
05 Sep - 14:27:48 10° NNW 14:30:36 24° NNE 14:33:24 10° E daylight
05 Sep - 16:04:23 10° WNW 16:07:19 29° SW 16:10:15 10° SSE daylight
06 Sep - 07:07:51 10° SSW 07:10:56 36° SE 07:14:02 10° ENE daylight
06 Sep - 08:45:07 10° W 08:47:44 21° NNW 08:50:22 10° NNE daylight
06 Sep - 13:39:37 10° NNW 13:41:48 16° NNE 13:43:59 10° ENE daylight
06 Sep - 15:15:30 10° NW 15:18:46 59° SW 15:22:02 10° SE daylight
07 Sep - 06:19:58 10° S 06:22:25 19° SE 06:24:52 10° E daylight
07 Sep - 07:55:54 10° WSW 07:58:58 34° NW 08:02:02 10° NNE daylight
07 Sep - 12:51:45 10° N 12:52:54 11° NNE 12:54:02 10° NE daylight
07 Sep - 14:26:49 10° NW 14:30:08 69° NE 14:33:27 10° SE daylight
08 Sep - 05:33:39 10° SE 05:33:56 10° SE 05:34:13 10° ESE visible
08 Sep - 07:06:56 10° WSW 07:10:14 62° NW 07:13:32 10° NE daylight
08 Sep - 08:46:38 10° NW 08:47:31 11° NNW 08:48:23 10° N daylight
08 Sep - 13:38:18 10° NNW 13:41:25 37° NE 13:44:32 10° ESE daylight
08 Sep - 15:15:37 10° W 15:17:55 18° SW 15:20:12 10° S daylight
09 Sep - 06:18:15 10° SW 06:21:33 66° SE 06:24:51 10° NE daylight
09 Sep - 07:56:30 10° WNW 07:58:34 15° NNW 08:00:38 10° N daylight
09 Sep - 12:49:53 10° NNW 12:52:36 23° NNE 12:55:18 10° E daylight
09 Sep - 14:26:20 10° WNW 14:29:21 33° SW 14:32:22 10° SSE daylight
10 Sep - 05:29:54 10° SSW 05:32:54 32° SE 05:35:55 10° ENE visible
10 Sep - 07:06:56 10° W 07:09:39 23° NNW 07:12:23 10° NNE daylight
10 Sep - 12:01:39 10° N 12:03:41 15° NNE 12:05:43 10° ENE daylight
10 Sep - 13:37:24 10° NW 13:40:42 67° SW 13:44:00 10° SE daylight
